date,time,DOY,Ta_1_1_1,Pa_1_1_1,RH_1_1_1,LWin_1_1_1,LWout_1_1_1,SWin_1_1_1,SWout_1_1_1,PPFD_1_1_1,MWS_1_1_1,WD_1_1_1,SWC_1_1_1,Ts_1_1_1
[yyyy-mm-dd],[HH:MM],[ddd.ddd],[K],[Pa],[%],[W+1m-2],[W+1m-2],[W+1m-2],[W+1m-2],[µmol+1m-2s-1],[m+1s-1],[deg],[m+3m-3],[K]
2014-09-17,00:30,260.020,283.75900000000007,94776.466666666660,69.210999999999984,-0.66233333333333333,-9999.0,0.52533333333333332,-1.0236666666666665,-1.50000000000000029E-002,4.6633333333333322,215.21099999999998,0.28999999999999992,283.34666666666675
2014-09-17,01:00,260.041,283.74433333333343,94758.733333333337,69.183999999999983,-0.69766666666666666,-9999.0,0.42433333333333328,-1.1456666666666668,-2.03333333333333317E-002,4.6333333333333311,210.22233333333332,0.28999999999999992,283.32499999999993
2014-09-17,01:30,260.062,283.43099999999998,94723.399999999994,71.283333333333317,-0.77966666666666640,-9999.0,0.22933333333333331,-1.2223333333333337,-1.36666666666666672E-002,4.4000000000000012,203.78933333333333,0.28999999999999992,283.29800000000006
2014-09-17,02:00,260.083,283.10666666666680,94697.833333333328,72.251666666666679,-0.76800000000000024,-9999.0,0.37266666666666670,-1.2303333333333335,-6.00000000000000012E-003,4.4466666666666672,206.14399999999998,0.28999999999999992,283.26466666666676
2014-09-17,02:30,260.104,282.95433333333330,94678.433333333334,72.629333333333335,-1.6936666666666667,-9999.0,0.78566666666666696,-2.4393333333333329,-3.23333333333333389E-002,4.5600000000000005,211.28933333333333,0.28999999999999992,283.20399999999995
2014-09-17,03:00,260.124,282.53266666666673,94669.666666666672,74.250666666666660,-2.1389999999999998,-9999.0,1.0060000000000002,-3.2276666666666669,-2.40000000000000074E-002,4.2999999999999998,209.85499999999999,0.28999999999999992,283.12200000000007
2014-09-17,03:30,260.145,282.24100000000004,94666.800000000003,75.349000000000004,-1.8250000000000000,-9999.0,1.0133333333333334,-2.7200000000000006,-1.96666666666666691E-002,4.7300000000000022,212.22166666666666,0.28999999999999992,283.02833333333348
2014-09-17,04:00,260.166,281.70333333333360,94664.333333333328,78.206000000000003,-2.0183333333333335,-9999.0,0.95333333333333325,-3.1660000000000013,-1.36666666666666672E-002,4.1733333333333338,212.40000000000003,0.28999999999999992,282.92266666666666
2014-09-17,04:30,260.187,281.28533333333331,94655.199999999997,80.192666666666653,-2.0946666666666669,-9999.0,1.1363333333333334,-3.0543333333333327,-2.20000000000000057E-002,4.2766666666666673,210.68899999999999,0.28999999999999992,282.80600000000010
2014-09-17,05:00,260.208,281.19699999999995,94666.699999999997,79.735333333333330,-1.7916666666666670,-9999.0,1.1976666666666669,-2.9166666666666661,-2.53333333333333327E-002,4.8700000000000001,215.04399999999998,0.28999999999999992,282.67500000000001
2014-09-17,05:30,260.229,280.72466666666674,94660.199999999997,82.258999999999986,-2.1473333333333331,-9999.0,0.99466666666666659,-2.9219999999999997,0.62433333333333330,3.9866666666666672,208.75533333333334,0.28999999999999992,282.55466666666678
2014-09-17,06:00,260.249,280.38866666666661,94661.399999999994,84.244666666666674,-2.0153333333333330,-9999.0,3.4343333333333330,7.7786666666666662,19.913333333333334,3.9466666666666668,205.18866666666665,0.28999999999999992,282.44233333333329
2014-09-17,06:30,260.270,280.61533333333330,94670.100000000006,83.026666666666671,-1.8383333333333336,-9999.0,8.6013333333333328,38.360333333333330,81.565666666666658,4.1999999999999993,209.18899999999999,0.28999999999999992,282.33266666666663
2014-09-17,07:00,260.291,281.23333333333335,94673.566666666666,80.169000000000011,-1.7993333333333330,-9999.0,20.219999999999995,103.77133333333333,196.40166666666667,4.1533333333333333,212.61066666666665,0.28999999999999992,282.27500000000015
2014-09-17,07:30,260.312,281.95066666666673,94677.233333333337,77.240666666666669,-1.7156666666666669,-9999.0,32.998666666666672,180.09766666666670,330.91333333333336,3.8599999999999994,212.86633333333333,0.28999999999999992,282.29500000000002
2014-09-17,08:00,260.333,282.12766666666664,94691.100000000006,77.285333333333327,-2.2920000000000007,-9999.0,23.103999999999999,142.40299999999996,296.19466666666648,3.1400000000000001,214.62233333333333,0.28999999999999992,282.40066666666661
2014-09-17,08:30,260.354,283.04100000000000,94690.800000000003,74.843666666666664,-0.88966666666666649,-9999.0,50.720999999999997,295.52800000000008,580.74199999999996,3.3733333333333344,218.31100000000001,0.28999999999999992,282.50766666666664
2014-09-17,09:00,260.374,285.28533333333326,94666.466666666660,66.217000000000013,-2.9286666666666665,-9999.0,83.352333333333334,496.75766666666664,960.23400000000004,3.0466666666666669,225.85499999999999,0.28999999999999992,282.67633333333339
2014-09-17,09:30,260.395,286.51266666666675,94658.433333333334,61.696000000000012,-3.0466666666666669,-9999.0,92.831666666666649,567.28666666666675,1112.2463333333333,3.1366666666666663,234.55566666666667,0.28999999999999992,283.05233333333331
2014-09-17,10:00,260.416,287.66433333333339,94652.899999999994,58.340333333333319,-2.9319999999999999,-9999.0,101.41699999999999,625.75566666666668,1237.4373333333331,3.2700000000000005,247.08833333333331,0.28999999999999992,283.56766666666670
2014-09-17,10:30,260.437,288.61000000000001,94640.566666666666,53.105999999999987,-2.6296666666666662,-9999.0,109.09933333333332,675.88199999999995,1348.8820000000003,4.4366666666666656,269.31099999999998,0.28999999999999992,283.87233333333336
2014-09-17,11:00,260.458,288.94366666666673,94637.233333333337,51.880000000000003,-2.1096666666666666,-9999.0,106.28666666666668,671.92933333333349,1341.1623333333332,4.2566666666666668,260.04433333333333,0.28999999999999992,284.16199999999998
2014-09-17,11:30,260.479,289.37100000000004,94632.233333333337,51.734000000000009,-1.5450000000000004,-9999.0,117.50133333333333,737.70299999999986,1488.5253333333337,3.8099999999999996,258.77733333333333,0.28999999999999992,284.49233333333348
2014-09-17,12:00,260.499,289.89566666666667,94637.133333333331,49.735333333333330,-2.4096666666666668,-9999.0,118.25233333333334,739.76699999999994,1497.0683333333332,3.7766666666666668,284.41466666666668,0.28999999999999992,284.82633333333337
2014-09-17,12:30,260.520,290.28166666666669,94640.100000000006,49.655333333333346,-1.9949999999999999,-9999.0,128.14866666666666,792.00266666666653,1601.4076666666670,4.2100000000000000,275.10000000000002,0.28400000000000009,285.11133333333333
2014-09-17,13:00,260.541,290.11600000000004,94647.433333333334,50.249999999999993,-2.7833333333333328,-9999.0,100.40766666666667,616.99766666666653,1249.4673333333335,4.9000000000000004,297.36733333333336,0.28000000000000014,285.33400000000000
2014-09-17,13:30,260.562,289.79233333333337,94656.766666666663,55.817999999999991,-2.4020000000000001,-9999.0,100.39066666666666,604.91899999999998,1225.6749999999997,4.6533333333333324,274.44533333333334,0.28000000000000014,285.40733333333333
2014-09-17,14:00,260.583,288.71300000000002,94677.533333333340,64.069000000000003,-1.3016666666666665,-9999.0,99.156333333333336,583.66366666666681,1178.8973333333333,5.6566666666666663,234.33233333333331,0.28000000000000014,285.45200000000000
2014-09-17,14:30,260.604,286.90300000000013,94711.566666666666,68.703999999999994,-0.57966666666666655,-9999.0,78.064666666666668,452.83366666666660,931.17366666666692,7.2199999999999998,266.06799999999998,0.28000000000000014,285.46866666666659
2014-09-17,15:00,260.624,286.09866666666665,94753.166666666672,70.369333333333330,6.73333333333333006E-002,-9999.0,94.891333333333321,520.00566666666668,1052.7180000000001,6.4466666666666672,276.89999999999998,0.28000000000000014,285.25333333333333
2014-09-17,15:30,260.645,285.65266666666673,94788.166666666672,69.773999999999987,-1.3296666666666661,-9999.0,48.763333333333335,283.19933333333330,575.08366666666689,5.6366666666666667,284.82200000000000,0.28000000000000014,285.04066666666671
2014-09-17,16:00,260.666,285.18333333333339,94799.399999999994,72.490333333333339,-0.67700000000000005,-9999.0,28.610666666666667,168.88499999999996,338.15566666666660,5.3566666666666682,282.21066666666667,0.28000000000000014,284.84433333333340
2014-09-17,16:30,260.687,284.29333333333329,94829.366666666669,76.443000000000012,-0.63533333333333331,-9999.0,24.320666666666671,135.67300000000000,283.40599999999989,6.2133333333333338,213.54466666666667,0.28000000000000014,284.64600000000002
2014-09-17,17:00,260.708,283.15266666666668,94847.266666666663,80.828333333333347,-1.7090000000000001,-9999.0,31.178333333333331,140.07100000000000,288.92866666666669,5.6399999999999997,164.98833333333332,0.28000000000000014,284.39833333333337
2014-09-17,17:30,260.729,282.40666666666664,94873.800000000003,83.151000000000010,-1.1526666666666663,-9999.0,19.453333333333330,81.178666666666643,157.10800000000000,5.5699999999999994,259.07800000000003,0.28000000000000014,284.12200000000001
2014-09-17,18:00,260.749,281.53699999999998,94901.300000000003,85.874000000000009,0.10366666666666666,-7.9909090909090903,2.5036666666666658,15.172000000000001,32.452333333333343,5.8099999999999996,190.22200000000001,0.28000000000000014,283.85100000000000
2014-09-17,18:30,260.770,280.36633333333339,94938.166666666672,88.317333333333323,0.52833333333333343,-4.7903333333333329,-9.53333333333333394E-002,0.65399999999999980,2.3823333333333330,6.5700000000000029,159.97766666666666,0.28000000000000014,283.55866666666662
2014-09-17,19:00,260.791,279.45433333333335,94973.899999999994,91.357333333333330,0.80233333333333345,-3.1259999999999994,-0.16633333333333333,-0.31533333333333319,-1.83333333333333334E-002,6.0233333333333325,147.51100000000000,0.28000000000000014,283.22266666666673
2014-09-17,19:30,260.812,278.87433333333325,95010.199999999997,91.852666666666664,0.91833333333333345,-3.4486666666666661,3.16666666666666624E-002,-0.21200000000000002,-4.36666666666666661E-002,6.3666666666666680,82.999666666666670,0.28000000000000014,282.90033333333338
2014-09-17,20:00,260.833,278.57899999999995,95040.800000000003,92.282666666666671,0.98900000000000021,-2.3676666666666670,-5.90000000000000038E-002,-0.21900000000000006,-3.90000000000000138E-002,5.0799999999999992,176.21099999999998,0.28000000000000014,282.60366666666670
2014-09-17,20:30,260.854,278.16333333333336,95077.233333333337,93.941333333333361,1.0573333333333335,-1.3739999999999999,-2.59999999999999988E-002,-0.13733333333333336,-4.76666666666666836E-002,4.3266666666666671,67.732666666666645,0.28000000000000014,282.38933333333335
2014-09-17,21:00,260.874,277.58466666666669,95109.300000000003,94.062666666666672,1.1670000000000000,-2.3283333333333336,5.63333333333333325E-002,-0.23033333333333331,-4.93333333333333540E-002,3.8966666666666674,64.399333333333331,0.28000000000000014,282.21066666666673
2014-09-17,21:30,260.895,277.19233333333335,95124.733333333337,89.126666666666679,0.90466666666666673,-5.7063333333333324,7.23333333333333606E-002,-0.38366666666666660,-4.63333333333333514E-002,4.7700000000000005,48.555666666666674,0.28000000000000014,281.99966666666666
2014-09-17,22:00,260.916,276.97000000000008,95139.366666666669,87.163000000000011,0.79366666666666663,-5.1239999999999988,6.93333333333333718E-002,-0.33933333333333326,-5.50000000000000211E-002,4.6700000000000008,47.244999999999997,0.28000000000000014,281.75533333333334
2014-09-17,22:30,260.937,276.93333333333334,95158.399999999994,87.667666666666662,0.91300000000000014,-4.7110000000000003,0.14266666666666666,-0.31933333333333330,-4.96666666666666853E-002,3.9933333333333332,62.311000000000007,0.28000000000000014,281.53966666666673
2014-09-17,23:00,260.958,276.70766666666663,95167.833333333328,88.007333333333321,0.95100000000000040,-4.4233333333333329,6.30000000000000004E-002,-0.39099999999999985,-5.26666666666666880E-002,3.7533333333333334,45.733666666666672,0.28000000000000014,281.39100000000002
2014-09-17,23:30,260.979,276.33066666666673,95170.333333333328,88.673000000000016,0.96133333333333304,-4.1229999999999984,-6.93333333333333302E-002,-0.40066666666666673,-4.96666666666666853E-002,3.8933333333333331,56.587999999999994,0.28000000000000014,281.26200000000000
2014-09-18,00:00,261.000,275.91666666666657,95189.899999999994,88.962000000000003,0.98733333333333317,-3.8143333333333342,4.20000000000000095E-002,-0.28033333333333338,-5.86666666666666864E-002,3.8166666666666673,77.300000000000011,0.28000000000000014,281.13533333333345
